SJV875 WIPP-WIII

Flight info

Callsign SJV875
Flight time 0h 52m
Altitude 31000
Route UDOKO T5 BUNIK
Aircraft A320/M-SDE3FGHIRWY/LB1

Departure

Time 2026-05-09 15:38
Airport Sultan Mahmud Badaruddin II Airport (WIPP)

Arrival

Time 2026-05-09 16:31
Airport Soekarno-Hatta International Airport (WIII)
Time Latitude Longitude Altitude Speed Heading
2026-05-09 15:10 -2.89608 104.70439 26 ft 0 kts 23°
2026-05-09 15:28 -2.89611 104.70437 29 ft 3 kts 24°
2026-05-09 15:29 -2.89630 104.70429 31 ft 3 kts 28°
2026-05-09 15:29 -2.89649 104.70418 30 ft 3 kts 34°
2026-05-09 15:29 -2.89665 104.70406 29 ft 3 kts 43°
2026-05-09 15:29 -2.89679 104.70390 27 ft 3 kts 63°
2026-05-09 15:30 -2.89684 104.70373 29 ft 2 kts 111°
2026-05-09 15:30 -2.89684 104.70371 29 ft 0 kts 112°
2026-05-09 15:33 -2.89684 104.70372 29 ft 1 kts 112°
2026-05-09 15:33 -2.89694 104.70397 30 ft 6 kts 112°
2026-05-09 15:33 -2.89714 104.70444 29 ft 8 kts 113°
2026-05-09 15:33 -2.89740 104.70505 27 ft 10 kts 113°
2026-05-09 15:34 -2.89793 104.70554 29 ft 12 kts 182°
2026-05-09 15:34 -2.89880 104.70549 25 ft 15 kts 140°
2026-05-09 15:34 -2.89933 104.70655 23 ft 19 kts 113°
2026-05-09 15:34 -2.89986 104.70784 20 ft 21 kts 112°
2026-05-09 15:35 -2.90047 104.70928 19 ft 24 kts 113°
2026-05-09 15:35 -2.90097 104.71030 19 ft 13 kts 131°
2026-05-09 15:35 -2.90182 104.71046 20 ft 14 kts 198°
2026-05-09 15:35 -2.90241 104.71005 19 ft 3 kts 208°
2026-05-09 15:36 -2.90255 104.70993 20 ft 1 kts 250°
2026-05-09 15:36 -2.90248 104.70981 19 ft 2 kts 295°
2026-05-09 15:36 -2.90248 104.70979 19 ft 0 kts 294°
2026-05-09 15:37 -2.90247 104.70978 19 ft 3 kts 294°
2026-05-09 15:37 -2.90147 104.70744 20 ft 72 kts 293°
2026-05-09 15:38 -2.89873 104.70093 21 ft 128 kts 292°
2026-05-09 15:38 -2.89472 104.69131 48 ft 168 kts 292°
2026-05-09 15:38 -2.89030 104.68058 620 ft 166 kts 292°
2026-05-09 15:38 -2.88592 104.66972 1173 ft 169 kts 290°
2026-05-09 15:39 -2.88157 104.65880 1800 ft 169 kts 290°
2026-05-09 15:39 -2.87681 104.64756 2092 ft 187 kts 300°
2026-05-09 15:39 -2.86621 104.63936 2323 ft 207 kts 347°
2026-05-09 15:39 -2.85166 104.64090 2536 ft 225 kts 31°
2026-05-09 15:40 -2.84075 104.65257 2815 ft 242 kts 67°
2026-05-09 15:40 -2.83477 104.66907 3225 ft 262 kts 75°
2026-05-09 15:40 -2.82983 104.68679 3986 ft 267 kts 77°
2026-05-09 15:40 -2.82509 104.70461 4807 ft 270 kts 76°
2026-05-09 15:41 -2.82011 104.72285 5608 ft 274 kts 75°
2026-05-09 15:41 -2.81487 104.74130 6386 ft 277 kts 75°
2026-05-09 15:41 -2.80938 104.75994 7115 ft 281 kts 74°
2026-05-09 15:41 -2.80367 104.77876 7847 ft 285 kts 73°
2026-05-09 15:42 -2.79780 104.79778 8593 ft 288 kts 73°
2026-05-09 15:42 -2.79182 104.81704 9308 ft 291 kts 72°
2026-05-09 15:42 -2.78579 104.83654 9995 ft 295 kts 73°
2026-05-09 15:42 -2.78259 104.85686 10623 ft 299 kts 91°
2026-05-09 15:43 -2.78630 104.87727 11261 ft 302 kts 109°
2026-05-09 15:43 -2.79426 104.89754 11434 ft 324 kts 111°
2026-05-09 15:43 -2.80308 104.91905 11559 ft 344 kts 112°
2026-05-09 15:43 -2.81245 104.94162 11872 ft 356 kts 112°
2026-05-09 15:44 -2.82197 104.96461 12406 ft 360 kts 112°
2026-05-09 15:44 -2.83155 104.98784 12986 ft 362 kts 111°
2026-05-09 15:44 -2.84113 105.01121 13569 ft 365 kts 111°
2026-05-09 15:44 -2.85105 105.03460 14097 ft 367 kts 116°
2026-05-09 15:45 -2.86498 105.05616 14593 ft 371 kts 129°
2026-05-09 15:45 -2.88359 105.07414 15089 ft 375 kts 142°
2026-05-09 15:45 -2.90617 105.08752 15573 ft 380 kts 155°
2026-05-09 15:45 -2.93122 105.09642 16053 ft 383 kts 160°
2026-05-09 15:46 -2.95567 105.10710 16516 ft 384 kts 149°
2026-05-09 15:46 -2.97883 105.12050 16991 ft 386 kts 148°
2026-05-09 15:46 -3.00212 105.13402 17466 ft 389 kts 148°
2026-05-09 15:46 -3.02567 105.14763 17934 ft 391 kts 148°
2026-05-09 15:47 -3.04905 105.16110 18371 ft 394 kts 148°
2026-05-09 15:47 -3.07317 105.17499 18779 ft 396 kts 148°
2026-05-09 15:47 -3.09682 105.18862 19172 ft 398 kts 148°
2026-05-09 15:47 -3.12093 105.20250 19584 ft 400 kts 148°
2026-05-09 15:48 -3.14512 105.21641 19991 ft 403 kts 148°
2026-05-09 15:48 -3.16948 105.23044 20404 ft 405 kts 148°
2026-05-09 15:48 -3.19398 105.24455 20806 ft 407 kts 149°
2026-05-09 15:48 -3.21856 105.25870 21202 ft 409 kts 149°
2026-05-09 15:49 -3.24332 105.27296 21589 ft 411 kts 148°
2026-05-09 15:49 -3.26680 105.28924 21966 ft 412 kts 139°
2026-05-09 15:49 -3.28886 105.30768 22336 ft 414 kts 139°
2026-05-09 15:49 -3.31101 105.32621 22702 ft 416 kts 139°
2026-05-09 15:50 -3.33323 105.34477 23063 ft 418 kts 139°
2026-05-09 15:50 -3.35561 105.36348 23400 ft 420 kts 139°
2026-05-09 15:50 -3.37811 105.38232 23696 ft 422 kts 139°
2026-05-09 15:50 -3.40074 105.40124 23969 ft 424 kts 139°
2026-05-09 15:51 -3.42343 105.42020 24246 ft 427 kts 139°
2026-05-09 15:51 -3.44630 105.43930 24524 ft 429 kts 139°
2026-05-09 15:51 -3.46926 105.45850 24796 ft 431 kts 139°
2026-05-09 15:51 -3.49230 105.47774 25070 ft 433 kts 139°
2026-05-09 15:52 -3.53881 105.51651 25603 ft 437 kts 139°
2026-05-09 15:52 -3.56225 105.53608 25876 ft 439 kts 139°
2026-05-09 15:52 -3.58575 105.55570 26133 ft 442 kts 139°
2026-05-09 15:53 -3.60943 105.57546 26388 ft 444 kts 139°
2026-05-09 15:53 -3.63316 105.59528 26647 ft 446 kts 139°
2026-05-09 15:53 -3.65705 105.61523 26903 ft 448 kts 139°
2026-05-09 15:53 -3.68105 105.63527 27167 ft 450 kts 139°
2026-05-09 15:54 -3.70517 105.65540 27420 ft 452 kts 139°
2026-05-09 15:54 -3.72934 105.67558 27678 ft 454 kts 139°
2026-05-09 15:54 -3.74541 105.68901 27844 ft 455 kts 139°
2026-05-09 15:54 -3.77776 105.71605 28193 ft 458 kts 139°
2026-05-09 15:55 -3.80225 105.73650 28445 ft 460 kts 139°
2026-05-09 15:55 -3.82686 105.75702 28803 ft 459 kts 139°
2026-05-09 15:55 -3.85141 105.77753 29195 ft 459 kts 139°
2026-05-09 15:55 -3.87584 105.79798 29585 ft 458 kts 139°
2026-05-09 15:56 -3.89214 105.81160 29845 ft 458 kts 139°
2026-05-09 15:56 -3.92483 105.83889 30306 ft 457 kts 139°
2026-05-09 15:56 -3.94097 105.85239 30527 ft 456 kts 139°
2026-05-09 15:56 -3.96537 105.87277 30812 ft 457 kts 139°
2026-05-09 15:57 -3.98980 105.89320 30887 ft 458 kts 139°
2026-05-09 15:57 -4.03878 105.93412 30901 ft 459 kts 139°
2026-05-09 15:58 -4.08778 105.97510 30903 ft 459 kts 139°
2026-05-09 15:58 -4.13674 106.01609 30903 ft 459 kts 139°
2026-05-09 15:59 -4.18568 106.05707 30906 ft 458 kts 139°
2026-05-09 15:59 -4.23467 106.09804 30904 ft 458 kts 139°
2026-05-09 16:00 -4.28360 106.13890 30900 ft 458 kts 139°
2026-05-09 16:00 -4.33247 106.17975 30900 ft 457 kts 139°
2026-05-09 16:01 -4.38117 106.22061 30900 ft 457 kts 139°
2026-05-09 16:01 -4.42995 106.26152 30898 ft 457 kts 139°
2026-05-09 16:02 -4.47873 106.30234 30904 ft 456 kts 139°
2026-05-09 16:02 -4.55170 106.36344 30903 ft 456 kts 139°
2026-05-09 16:03 -4.60002 106.40395 30898 ft 455 kts 139°
2026-05-09 16:03 -4.64865 106.44465 30899 ft 455 kts 139°
2026-05-09 16:04 -4.69730 106.48541 30894 ft 455 kts 139°
2026-05-09 16:04 -4.74586 106.52619 30892 ft 455 kts 139°
2026-05-09 16:05 -4.79445 106.56697 30892 ft 455 kts 139°
2026-05-09 16:05 -4.84304 106.60771 30898 ft 455 kts 140°
2026-05-09 16:06 -4.89767 106.63993 30896 ft 458 kts 154°
2026-05-09 16:06 -4.95571 106.66632 30894 ft 458 kts 154°
2026-05-09 16:07 -5.01376 106.69279 30535 ft 459 kts 154°
2026-05-09 16:07 -5.04256 106.70593 29855 ft 459 kts 154°
2026-05-09 16:07 -5.07150 106.71915 29206 ft 456 kts 154°
2026-05-09 16:08 -5.10027 106.73230 28614 ft 452 kts 154°
2026-05-09 16:08 -5.12873 106.74531 28002 ft 448 kts 154°
2026-05-09 16:08 -5.15699 106.75822 27427 ft 445 kts 154°
2026-05-09 16:08 -5.18492 106.77097 27126 ft 435 kts 154°
2026-05-09 16:09 -5.21229 106.78341 26563 ft 432 kts 154°
2026-05-09 16:09 -5.23958 106.79575 26124 ft 427 kts 154°
2026-05-09 16:09 -5.26650 106.80793 25607 ft 424 kts 154°
2026-05-09 16:09 -5.29334 106.82005 25108 ft 421 kts 154°
2026-05-09 16:10 -5.32021 106.83220 24193 ft 429 kts 154°
2026-05-09 16:10 -5.34774 106.84468 23312 ft 437 kts 154°
2026-05-09 16:10 -5.37523 106.85714 22950 ft 426 kts 154°
2026-05-09 16:10 -5.40220 106.86937 22042 ft 429 kts 154°
2026-05-09 16:11 -5.42970 106.88183 20846 ft 439 kts 155°
2026-05-09 16:11 -5.45887 106.89052 20338 ft 433 kts 171°
2026-05-09 16:11 -5.48819 106.89136 20376 ft 414 kts 184°
2026-05-09 16:11 -5.51599 106.88540 20144 ft 405 kts 198°
2026-05-09 16:12 -5.54194 106.87555 20016 ft 392 kts 200°
2026-05-09 16:12 -5.56689 106.86586 19733 ft 376 kts 200°
2026-05-09 16:12 -5.59075 106.85657 19099 ft 369 kts 200°
2026-05-09 16:12 -5.61492 106.84720 18513 ft 366 kts 200°
2026-05-09 16:13 -5.63831 106.83815 18076 ft 364 kts 200°
2026-05-09 16:13 -5.66212 106.82895 17632 ft 361 kts 200°
2026-05-09 16:13 -5.68517 106.82004 17189 ft 358 kts 200°
2026-05-09 16:13 -5.70839 106.81109 16751 ft 356 kts 200°
2026-05-09 16:14 -5.73148 106.80220 16314 ft 354 kts 200°
2026-05-09 16:14 -5.75435 106.79341 15896 ft 351 kts 200°
2026-05-09 16:14 -5.77714 106.78464 15472 ft 349 kts 200°
2026-05-09 16:14 -5.79973 106.77593 15077 ft 347 kts 200°
2026-05-09 16:15 -5.82225 106.76725 14680 ft 345 kts 200°
2026-05-09 16:15 -5.84417 106.75752 14286 ft 344 kts 210°
2026-05-09 16:15 -5.86287 106.74274 13913 ft 343 kts 226°
2026-05-09 16:15 -5.87686 106.72347 13508 ft 342 kts 242°
2026-05-09 16:16 -5.88618 106.70159 13086 ft 340 kts 248°
2026-05-09 16:16 -5.89491 106.67957 12681 ft 339 kts 248°
2026-05-09 16:16 -5.90361 106.65765 12285 ft 337 kts 248°
2026-05-09 16:16 -5.91223 106.63603 11792 ft 328 kts 248°
2026-05-09 16:17 -5.92049 106.61544 11607 ft 309 kts 248°
2026-05-09 16:17 -5.92840 106.59571 11178 ft 302 kts 248°
2026-05-09 16:17 -5.93619 106.57626 10677 ft 298 kts 248°
2026-05-09 16:17 -5.94394 106.55707 10154 ft 296 kts 248°
2026-05-09 16:18 -5.95170 106.53803 9644 ft 293 kts 247°
2026-05-09 16:18 -5.95941 106.51919 9104 ft 291 kts 247°
2026-05-09 16:18 -5.96709 106.50045 8881 ft 287 kts 247°
2026-05-09 16:18 -5.97465 106.48197 8729 ft 285 kts 247°
2026-05-09 16:19 -5.98214 106.46361 8516 ft 284 kts 247°
2026-05-09 16:19 -5.98958 106.44537 8297 ft 280 kts 247°
2026-05-09 16:19 -5.99688 106.42744 8080 ft 276 kts 247°
2026-05-09 16:19 -6.00409 106.40973 7858 ft 272 kts 247°
2026-05-09 16:20 -6.01121 106.39224 7649 ft 269 kts 247°
2026-05-09 16:20 -6.01824 106.37498 7429 ft 265 kts 247°
2026-05-09 16:20 -6.02514 106.35803 7289 ft 259 kts 247°
2026-05-09 16:20 -6.03186 106.34153 7183 ft 250 kts 247°
2026-05-09 16:21 -6.04103 106.32715 7076 ft 243 kts 221°
2026-05-09 16:21 -6.05534 106.31883 6944 ft 236 kts 193°
2026-05-09 16:21 -6.07143 106.31808 6685 ft 232 kts 168°
2026-05-09 16:21 -6.08703 106.32096 6452 ft 229 kts 168°
2026-05-09 16:22 -6.10269 106.32379 6222 ft 227 kts 168°
2026-05-09 16:22 -6.11814 106.32656 5983 ft 224 kts 168°
2026-05-09 16:22 -6.13343 106.32929 5758 ft 221 kts 168°
2026-05-09 16:22 -6.14848 106.33196 5532 ft 218 kts 168°
2026-05-09 16:23 -6.16328 106.33458 5321 ft 215 kts 168°
2026-05-09 16:23 -6.17789 106.33716 5178 ft 208 kts 168°
2026-05-09 16:23 -6.19165 106.33964 5113 ft 193 kts 165°
2026-05-09 16:23 -6.20365 106.34492 5019 ft 187 kts 143°
2026-05-09 16:24 -6.21274 106.35402 4869 ft 184 kts 123°
2026-05-09 16:24 -6.21950 106.36496 4719 ft 183 kts 121°
2026-05-09 16:24 -6.22610 106.37558 4561 ft 176 kts 121°
2026-05-09 16:24 -6.23247 106.38589 4422 ft 173 kts 118°
2026-05-09 16:25 -6.23630 106.39725 4280 ft 172 kts 97°
2026-05-09 16:25 -6.23566 106.40913 4143 ft 171 kts 75°
2026-05-09 16:25 -6.23148 106.42036 4006 ft 172 kts 69°
2026-05-09 16:25 -6.22709 106.43137 3872 ft 172 kts 69°
2026-05-09 16:26 -6.22266 106.44248 3738 ft 171 kts 69°
2026-05-09 16:26 -6.21823 106.45361 3600 ft 171 kts 69°
2026-05-09 16:26 -6.21381 106.46471 3529 ft 172 kts 69°
2026-05-09 16:26 -6.20939 106.47583 3369 ft 171 kts 69°
2026-05-09 16:27 -6.20498 106.48690 3166 ft 170 kts 69°
2026-05-09 16:27 -6.20061 106.49788 2948 ft 169 kts 69°
2026-05-09 16:27 -6.19624 106.50886 2734 ft 169 kts 69°
2026-05-09 16:27 -6.19188 106.51979 2522 ft 168 kts 69°
2026-05-09 16:28 -6.18753 106.53072 2310 ft 168 kts 69°
2026-05-09 16:28 -6.18320 106.54161 2101 ft 168 kts 69°
2026-05-09 16:28 -6.17886 106.55249 1881 ft 168 kts 69°
2026-05-09 16:28 -6.17453 106.56337 1658 ft 167 kts 69°
2026-05-09 16:29 -6.17040 106.57374 1460 ft 154 kts 69°
2026-05-09 16:29 -6.16649 106.58354 1257 ft 149 kts 69°
2026-05-09 16:29 -6.16267 106.59314 1061 ft 147 kts 69°
2026-05-09 16:29 -6.15888 106.60265 898 ft 146 kts 69°
2026-05-09 16:30 -6.15510 106.61214 720 ft 146 kts 69°
2026-05-09 16:30 -6.15131 106.62164 522 ft 146 kts 70°
2026-05-09 16:30 -6.14754 106.63113 349 ft 146 kts 70°
2026-05-09 16:30 -6.14374 106.64060 146 ft 146 kts 69°
2026-05-09 16:31 -6.14002 106.64972 46 ft 133 kts 69°
2026-05-09 16:31 -6.13716 106.65717 39 ft 90 kts 68°
2026-05-09 16:31 -6.13544 106.66142 40 ft 41 kts 66°
2026-05-09 16:31 -6.13437 106.66254 41 ft 18 kts 39°
2026-05-09 16:32 -6.13349 106.66310 40 ft 9 kts 354°
2026-05-09 16:32 -6.13310 106.66286 39 ft 11 kts 304°
2026-05-09 16:32 -6.13336 106.66177 39 ft 14 kts 248°
2026-05-09 16:32 -6.13376 106.66078 39 ft 17 kts 247°
2026-05-09 16:33 -6.13423 106.65961 38 ft 20 kts 248°
2026-05-09 16:33 -6.13477 106.65825 38 ft 22 kts 250°
2026-05-09 16:33 -6.13532 106.65675 36 ft 24 kts 248°
2026-05-09 16:33 -6.13601 106.65514 38 ft 26 kts 248°
2026-05-09 16:34 -6.13671 106.65339 39 ft 28 kts 248°
2026-05-09 16:34 -6.13745 106.65153 39 ft 30 kts 248°
2026-05-09 16:34 -6.13800 106.65013 39 ft 13 kts 256°
2026-05-09 16:34 -6.13733 106.64957 39 ft 15 kts 339°
2026-05-09 16:35 -6.13629 106.64916 37 ft 17 kts 339°
2026-05-09 16:35 -6.13511 106.64870 38 ft 19 kts 338°
2026-05-09 16:35 -6.13378 106.64816 38 ft 22 kts 338°
2026-05-09 16:35 -6.13230 106.64756 38 ft 24 kts 338°
2026-05-09 16:36 -6.13116 106.64710 40 ft 15 kts 338°
2026-05-09 16:36 -6.13004 106.64665 54 ft 1 kts 338°
2026-05-09 16:37 -6.12986 106.64658 51 ft 4 kts 338°
2026-05-09 16:37 -6.12961 106.64648 56 ft 5 kts 338°
2026-05-09 16:37 -6.12901 106.64625 49 ft 15 kts 339°
2026-05-09 16:37 -6.12774 106.64575 38 ft 23 kts 339°
2026-05-09 16:38 -6.12639 106.64522 38 ft 22 kts 337°
2026-05-09 16:38 -6.12491 106.64462 38 ft 24 kts 339°
2026-05-09 16:38 -6.12360 106.64408 38 ft 19 kts 337°
2026-05-09 16:38 -6.12230 106.64357 38 ft 21 kts 340°
2026-05-09 16:39 -6.12123 106.64336 39 ft 13 kts 38°
2026-05-09 16:39 -6.12080 106.64423 37 ft 15 kts 67°
2026-05-09 16:39 -6.12042 106.64521 37 ft 11 kts 68°
2026-05-09 16:39 -6.12010 106.64601 39 ft 13 kts 68°
2026-05-09 16:40 -6.11975 106.64688 39 ft 14 kts 68°
2026-05-09 16:40 -6.11934 106.64789 39 ft 17 kts 68°
2026-05-09 16:42 -6.12149 106.65055 38 ft 5 kts 112°
2026-05-09 16:42 -6.12160 106.65081 38 ft 7 kts 112°
2026-05-09 16:42 -6.12164 106.65092 36 ft 0 kts 112°